GFSFLT2_sfc_dewp_000.txt.gz
Dewpoint
52 52 41 36 34 34 35 34 34 33 33 34 34 34 34 34 34 34 34 34 34 35 35 35 36 37 38
52 46 40 33 34 33 32 31 32 29 30 30 33 32 32 32 32 32 32 32 33 33 32 33 34 34 37
52 41 36 35 35 35 34 34 30 28 28 31 29 30 31 31 31 32 31 31 32 31 32 32 33 34 35
50 39 36 36 36 36 34 34 31 22 28 27 27 28 30 30 30 29 29 31 32 31 31 32 32 33 35
42 38 36 35 35 35 34 32 26 26 26 24 23 23 24 26 26 27 30 32 32 31 31 31 31 32 32
43 41 37 36 35 34 31 26 20 29 25 22 23 23 23 23 25 29 31 32 30 30 31 30 30 30 31
42 40 38 34 34 32 29 23 21 22 23 22 24 24 22 20 26 28 31 31 29 30 29 29 29 29 30
43 36 36 35 33 28 25 23 24 21 26 25 21 20 21 22 24 27 30 28 29 29 28 28 28 29 29
37 36 36 33 27 24 28 27 20 18 25 23 20 20 19 19 20 24 26 26 27 27 28 27 28 28 27
34 33 31 29 28 26 29 27 24 16 24 22 19 20 18 18 19 19 17 20 23 25 25 27 27 25 24
32 30 28 28 27 27 29 28 26 24 23 25 26 23 20 19 17 17 16 16 15 18 22 23 24 26 24
27 25 26 27 29 29 29 29 28 27 26 28 25 24 22 19 15 15 15 16 16 15 17 21 24 24 26
23 25 27 29 28 27 28 28 29 28 26 28 27 26 23 21 18 17 16 14 14 15 15 16 17 18 19
23 24 25 26 25 27 25 25 24 24 27 29 27 25 23 22 21 18 17 14 14 14 15 16 17 18 18
21 21 20 23 24 25 24 23 22 22 23 25 26 25 25 24 20 20 18 15 14 15 16 16 17 18 19
22 20 22 24 23 23 23 23 22 21 22 24 22 22 22 23 24 20 16 13 15 15 16 16 17 19 20
24 25 25 25 25 22 22 21 21 22 24 23 21 20 17 15 15 23 16 14 14 14 16 17 18 19 20

GFSFLT2_sfc_dewp_003.txt.gz
Dewpoint
54 53 41 36 36 36 40 37 39 40 39 39 36 36 36 35 36 35 35 35 35 36 36 36 36 36 36
53 53 45 39 36 36 34 33 36 37 36 34 33 35 35 34 35 34 34 34 34 34 34 34 35 35 36
52 52 45 40 36 36 37 36 33 36 33 32 34 33 33 34 33 33 33 33 32 32 32 34 33 34 36
52 44 43 42 39 37 37 37 36 30 27 30 31 30 31 32 32 32 32 31 32 33 33 32 32 32 34
51 43 42 41 39 40 38 37 36 31 29 28 28 29 28 28 30 30 30 31 33 33 32 32 32 32 32
50 46 45 43 42 38 36 32 28 30 28 26 26 25 26 26 27 28 30 32 32 33 31 31 31 31 31
50 48 47 43 41 37 34 30 27 29 26 23 26 26 26 23 27 28 29 30 32 32 30 30 30 30 30
52 50 45 41 39 38 32 28 26 24 27 26 25 24 24 25 27 27 28 31 30 30 30 30 29 30 30
45 43 42 40 34 29 28 28 23 21 27 25 23 22 23 21 22 24 27 28 28 27 28 29 29 29 29
38 38 36 34 32 31 30 29 28 19 26 24 21 21 21 20 21 22 22 23 23 24 26 26 27 26 25
33 31 30 30 29 31 32 31 28 27 28 28 27 25 23 22 20 20 20 20 19 19 22 24 26 25 23
32 30 29 29 29 30 31 31 31 29 28 28 23 23 21 20 18 18 19 19 19 18 18 21 24 24 26
31 29 29 30 30 30 30 30 30 29 29 28 26 24 25 21 19 19 19 18 18 18 18 18 18 19 20
28 28 29 28 28 29 27 27 26 27 28 28 26 26 23 21 21 21 21 18 17 17 17 18 18 19 19
27 26 26 27 27 28 28 26 25 25 25 27 27 26 25 23 21 21 20 19 18 16 17 16 17 18 19
25 25 25 26 26 26 26 25 24 24 23 24 21 19 20 23 26 21 21 17 16 16 16 15 16 19 21
25 26 27 26 25 25 24 24 23 23 23 20 17 15 13 14 20 27 20 17 16 13 15 16 17 18 20

GFSFLT2_sfc_dewp_006.txt.gz
Dewpoint
54 54 51 51 48 44 44 43 46 49 48 46 44 43 42 40 38 36 36 35 35 36 36 37 37 37 36
54 54 49 47 46 43 43 41 43 45 45 44 43 41 39 38 35 35 35 34 34 34 35 35 36 35 36
53 54 48 45 43 43 42 40 39 43 43 41 40 38 38 35 34 35 34 34 34 34 33 34 34 35 34
53 52 44 43 44 42 39 40 37 37 38 36 36 37 36 34 34 33 33 33 34 33 33 33 34 33 34
53 48 43 40 41 43 42 40 39 34 31 29 31 30 30 32 33 32 33 32 32 33 33 34 33 33 33
53 50 48 46 44 43 42 37 34 33 31 29 27 27 27 26 29 29 30 30 31 33 33 33 32 32 32
53 52 50 48 45 42 42 38 33 30 28 24 25 25 26 24 29 30 30 30 31 32 33 32 32 31 31
54 54 53 51 47 44 41 33 30 30 28 24 25 24 26 26 30 29 29 30 30 32 31 31 31 31 31
51 51 51 49 45 38 34 32 26 25 27 24 22 21 22 22 23 26 27 28 30 30 30 29 29 30 29
42 43 45 44 43 41 34 32 30 27 28 24 21 21 19 22 21 22 22 26 25 25 26 26 27 25 25
36 35 34 34 34 34 35 33 29 27 28 27 23 24 22 22 21 20 19 19 20 21 24 24 25 25 24
33 32 31 31 32 32 32 31 31 30 29 25 21 21 16 19 19 20 18 19 20 19 19 22 23 24 26
32 32 31 31 31 30 30 30 30 30 28 25 22 20 18 16 17 18 20 20 20 21 19 18 18 18 19
33 32 31 30 28 28 27 27 26 26 28 25 24 19 15 18 19 19 19 20 20 19 19 18 19 19 19
30 29 28 28 27 28 27 27 26 25 24 25 23 22 21 17 21 20 20 20 20 20 17 16 17 18 19
29 29 28 27 26 28 27 26 24 23 21 18 16 15 14 19 25 19 19 20 20 18 16 15 14 17 18
28 28 28 27 27 26 26 24 23 20 16 12 9 7 5 7 17 25 22 22 20 18 16 14 14 16 18

GFSFLT2_sfc_dewp_009.txt.gz
Dewpoint
53 54 54 53 53 52 52 51 51 54 55 54 53 53 51 48 47 45 44 42 40 40 39 40 40 39 38
54 54 54 54 53 50 49 49 49 51 53 53 52 51 49 46 45 43 41 39 38 38 38 38 37 38 37
54 55 55 47 45 45 46 46 45 47 51 52 50 49 47 45 43 41 39 38 37 36 36 35 35 36 37
54 54 54 46 47 47 43 44 44 43 47 48 48 47 46 43 41 38 38 37 37 36 35 34 34 34 35
51 52 52 42 44 46 46 45 42 42 42 43 42 42 40 41 39 38 36 36 36 35 35 34 34 34 35
50 50 50 49 48 47 45 40 37 40 38 38 38 37 36 36 37 35 35 35 35 34 34 34 34 34 33
50 50 51 52 51 48 46 43 42 38 38 35 34 33 33 33 34 33 32 33 33 33 33 33 34 33 32
50 51 52 53 53 50 47 42 33 34 36 31 31 31 31 29 32 32 32 32 32 32 33 33 32 31 32
48 48 49 51 52 42 36 36 31 31 31 30 29 29 29 28 26 31 32 31 31 31 32 32 31 31 30
44 46 46 48 50 48 43 39 32 29 30 29 28 28 24 26 23 23 25 29 30 31 31 30 29 26 25
44 38 35 35 35 36 38 39 34 32 31 30 28 26 23 22 21 21 20 20 20 22 25 26 26 25 23
38 34 32 32 32 33 33 33 33 33 32 31 27 26 23 21 18 20 18 19 19 18 19 22 25 25 26
35 32 32 32 32 30 31 31 31 31 30 28 26 23 22 20 19 19 19 19 20 19 20 20 19 18 18
32 32 32 30 29 30 28 28 27 26 28 26 24 23 21 19 20 18 19 17 19 19 19 19 19 19 18
31 30 29 28 27 28 27 27 25 24 25 26 26 24 20 17 14 18 19 19 20 20 19 19 18 18 18
30 29 28 27 26 27 27 26 25 24 22 24 23 21 14 17 24 18 18 19 19 20 20 17 16 16 18
29 28 27 27 27 26 26 26 24 21 17 13 15 8 3 9 16 25 20 21 21 20 19 18 16 16 17

GFSFLT2_sfc_dewp_012.txt.gz
Dewpoint
53 55 56 56 54 53 53 52 52 53 54 55 55 55 56 56 56 55 54 51 50 49 47 45 43 42 43
50 52 53 55 55 55 53 53 53 53 54 54 55 55 55 55 54 53 51 50 48 47 44 42 41 42 42
49 50 51 53 53 52 54 53 52 52 53 54 55 55 55 54 52 51 49 48 46 43 41 40 40 40 40
48 48 49 50 50 51 50 47 48 48 49 51 53 54 54 53 51 49 47 46 44 41 39 38 38 38 38
45 47 48 48 46 48 48 49 47 48 46 47 50 51 51 51 48 47 45 44 43 41 39 38 37 36 36
43 43 44 48 49 49 48 47 45 43 43 44 46 45 46 47 46 46 43 43 42 40 38 37 37 36 36
40 40 41 44 47 48 48 48 46 42 43 41 40 42 40 42 45 43 42 41 40 38 37 36 36 35 35
39 39 41 43 44 47 48 49 39 38 41 37 35 37 35 38 43 42 41 39 38 38 36 36 35 34 35
42 43 44 44 45 45 44 39 38 35 36 33 31 30 32 33 37 40 39 38 37 35 35 34 34 33 32
41 42 43 43 44 44 44 42 39 31 33 33 30 29 27 29 31 32 36 37 35 34 34 34 33 30 28
39 41 42 42 38 36 37 43 41 34 33 32 29 27 28 25 27 30 30 25 28 30 32 33 33 30 24
35 37 39 36 33 33 33 33 34 34 35 32 28 27 25 24 23 23 20 21 20 19 19 23 28 29 29
33 34 34 33 32 31 31 30 29 30 29 29 28 27 26 24 21 19 18 18 19 18 19 19 19 19 18
32 33 32 30 29 30 29 28 26 25 27 27 27 25 22 22 20 19 19 15 19 19 19 19 19 19 18
31 31 30 28 27 28 28 27 25 24 24 25 25 24 22 19 17 17 18 18 19 19 20 18 19 19 19
30 30 28 27 26 27 28 26 24 24 23 24 22 17 15 17 21 15 19 19 19 20 20 18 17 17 18
29 28 28 27 27 26 26 26 24 21 18 18 12 5 4 6 15 24 18 19 20 20 20 19 17 17 17

GFSFLT2_sfc_dewp_015.txt.gz
Dewpoint
45 48 49 51 52 55 55 54 53 54 55 55 55 55 55 55 55 56 57 57 57 58 59 57 55 52 50
43 44 46 49 50 51 53 54 54 54 55 55 54 55 55 55 55 55 55 56 56 57 57 56 53 52 50
41 44 45 48 49 50 51 53 54 53 55 54 55 55 55 55 55 55 55 55 55 54 54 53 52 49 46
37 38 40 42 45 46 47 49 50 51 52 52 53 53 54 55 55 54 53 54 53 53 51 50 47 46 45
33 34 36 39 39 43 44 45 47 48 48 50 49 50 51 53 53 53 53 52 51 51 49 47 45 44 42
31 31 32 35 38 40 41 41 41 47 48 47 49 47 49 50 52 52 51 50 49 48 46 44 43 42 40
31 32 34 35 37 38 38 39 39 44 45 45 44 45 47 46 50 50 49 48 46 46 44 43 42 40 39
32 35 37 38 39 39 39 39 40 42 44 41 42 41 38 41 48 48 47 45 45 44 43 42 40 40 39
39 40 40 41 42 41 40 38 37 40 40 41 37 33 33 35 43 46 45 44 43 42 42 41 40 39 37
35 35 36 36 39 40 41 39 39 39 36 37 31 30 29 30 33 42 41 42 41 41 41 41 39 34 31
32 32 31 33 37 38 38 38 37 36 39 36 31 30 29 26 29 31 32 36 37 39 40 39 37 34 30
31 31 31 34 35 35 34 33 33 33 37 34 30 28 26 25 24 26 28 29 31 32 32 36 36 36 33
30 30 32 33 33 31 31 30 28 28 29 31 30 29 28 25 23 23 24 25 27 25 24 24 23 22 27
31 31 32 31 29 30 29 28 25 24 26 28 27 27 24 24 25 24 24 23 23 22 20 19 19 19 19
30 29 28 29 28 28 28 27 24 23 23 25 25 25 24 23 22 22 20 19 19 19 18 18 18 18 18
29 28 27 28 27 27 28 26 24 23 23 23 23 21 19 20 22 18 18 18 19 19 18 16 16 18 19
29 28 27 27 28 26 26 25 23 21 19 18 17 14 12 9 15 21 17 18 18 19 19 18 17 17 18

GFSFLT2_sfc_dewp_018.txt.gz
Dewpoint
37 37 30 36 43 47 48 49 50 53 55 56 55 55 55 55 56 57 58 58 58 59 59 59 59 60 60
32 32 33 38 39 39 41 44 48 51 53 53 54 55 55 55 55 55 55 56 57 57 58 58 58 60 59
31 32 34 35 37 38 39 42 45 47 50 52 53 53 54 55 55 54 54 54 55 55 56 57 57 59 59
32 31 31 33 35 35 35 38 39 41 45 47 50 52 53 53 54 53 53 54 55 55 55 55 55 57 57
30 31 29 28 29 31 33 35 36 39 41 43 45 48 49 50 50 50 52 53 53 54 55 55 55 56 55
28 28 27 27 30 30 33 33 33 38 39 40 42 45 47 49 49 50 51 52 52 53 54 54 53 52 51
28 28 29 31 31 31 35 35 35 36 38 37 40 40 43 47 49 49 50 51 52 52 52 51 49 49 48
31 32 33 34 36 36 34 36 38 38 39 37 39 39 43 44 45 47 48 49 49 51 49 47 47 45 44
33 34 35 36 35 34 34 33 33 36 40 39 39 40 34 35 39 43 46 49 48 47 46 45 44 43 42
32 31 31 31 33 32 34 32 32 31 38 39 39 34 33 31 34 38 46 47 46 45 44 43 42 39 38
27 28 29 30 32 33 35 34 31 30 33 36 35 32 31 28 29 31 40 43 42 42 42 42 41 38 35
26 27 28 29 30 31 33 33 31 29 29 30 32 32 28 26 27 28 31 32 36 36 37 40 41 40 37
26 26 27 30 30 30 31 31 29 27 27 28 31 29 29 27 24 24 27 27 32 32 35 37 37 36 35
25 26 27 29 27 29 28 28 26 26 27 27 26 28 25 26 27 25 26 25 27 29 28 27 28 31 32
24 24 24 28 27 29 27 27 24 23 23 25 26 26 26 26 23 24 23 24 25 24 25 23 24 21 21
23 24 25 26 26 28 27 25 23 23 22 22 21 22 22 24 26 21 21 21 22 22 21 19 17 18 19
23 24 27 26 27 26 26 24 22 21 19 18 17 17 17 15 19 23 18 18 18 18 18 16 15 17 18

GFSFLT2_sfc_dewp_021.txt.gz
Dewpoint
30 29 35 34 33 34 36 35 38 44 44 48 49 50 51 53 54 55 56 57 58 58 60 60 61 60 60
28 35 30 31 33 34 34 35 37 40 42 46 44 46 49 52 53 53 54 55 56 57 58 59 60 60 61
30 29 29 30 31 32 32 34 34 39 39 41 42 44 46 47 49 51 52 54 54 55 55 56 57 58 59
30 29 28 29 31 29 28 32 32 32 35 37 39 42 45 46 48 49 51 52 54 54 54 54 54 55 57
28 28 28 29 28 28 29 29 30 32 33 35 37 40 44 42 43 47 50 51 51 52 53 54 54 54 55
29 27 27 26 28 30 30 31 30 35 35 37 37 37 39 41 42 44 45 49 50 51 52 52 52 52 53
27 29 30 28 29 33 32 32 33 36 36 32 36 36 39 39 42 43 44 47 48 49 49 50 51 52 53
27 26 28 31 32 34 34 34 33 34 35 33 35 36 39 41 42 44 45 46 47 47 48 49 50 50 52
29 31 31 32 31 30 31 31 30 30 33 34 35 35 37 40 42 43 43 44 45 46 48 48 49 49 49
27 27 28 29 30 31 32 30 30 28 34 32 32 32 33 35 35 36 37 41 42 44 48 48 45 43 43
24 24 26 27 28 30 33 32 30 29 31 32 31 31 32 34 33 35 34 41 45 46 46 44 43 41 39
23 24 25 26 28 30 29 33 33 31 34 31 28 29 30 31 31 31 31 36 42 41 40 41 41 40 39
23 24 25 27 28 28 30 32 32 32 31 29 28 28 29 31 29 28 30 30 36 37 37 35 35 36 37
24 25 26 25 25 27 30 30 29 29 29 29 28 29 30 32 31 30 29 29 32 32 31 35 36 36 36
23 23 24 24 25 30 29 29 27 25 25 26 28 29 29 30 26 28 28 28 30 30 29 27 29 34 34
23 23 24 25 27 29 29 26 24 23 22 22 22 24 26 26 29 25 25 25 27 29 29 26 24 28 30
23 23 24 26 27 27 26 25 23 22 20 20 19 20 22 18 23 28 23 24 25 24 26 26 25 25 27

GFSFLT2_sfc_dewp_024.txt.gz
Dewpoint
26 27 26 27 27 26 28 26 29 34 36 37 38 40 44 46 45 47 50 52 53 54 55 57 58 58 59
27 26 27 26 27 26 24 23 27 30 33 35 36 38 39 42 44 46 46 48 51 53 54 55 57 58 58
27 27 27 27 26 26 26 27 24 31 31 32 34 36 37 39 41 43 45 47 50 51 53 54 55 56 57
28 27 27 28 27 27 27 27 27 26 30 32 35 36 37 38 40 42 44 43 48 50 52 52 53 55 56
28 29 26 24 25 26 27 27 27 29 31 32 32 35 36 38 39 39 41 43 45 45 50 52 52 53 54
29 26 22 24 27 26 27 27 27 29 29 31 35 35 35 35 38 41 41 42 43 44 45 48 51 52 52
24 24 26 25 26 28 29 31 32 31 32 29 31 33 35 34 38 39 41 42 43 44 45 48 49 49 50
24 25 27 29 31 31 31 31 31 32 32 31 34 33 35 35 37 38 40 43 44 44 45 47 47 47 49
28 28 28 29 29 27 30 29 27 28 31 32 32 33 35 35 36 36 40 42 44 44 45 46 46 47 48
24 24 25 25 27 27 31 28 28 27 30 31 31 31 29 34 38 37 37 39 41 42 43 44 45 46 46
22 23 24 25 26 28 29 29 27 28 29 31 31 31 31 30 31 35 37 38 38 40 43 45 46 45 44
23 23 24 25 26 28 28 29 30 30 31 33 30 30 29 27 27 33 37 35 35 40 42 46 45 44 44
23 24 25 26 27 28 29 30 31 32 33 32 30 28 28 27 27 32 34 32 36 35 35 37 38 39 40
24 25 25 26 26 28 28 28 30 30 32 31 30 29 27 28 29 32 32 30 32 34 33 33 34 34 36
24 23 24 25 25 27 28 29 27 26 26 28 29 29 30 31 31 33 31 30 32 32 32 31 32 33 35
23 23 24 23 25 29 29 27 25 24 23 23 23 24 29 28 31 29 29 29 31 32 33 30 31 32 35
23 23 23 26 27 27 27 25 23 22 22 22 22 24 24 21 25 30 27 29 29 30 31 28 28 32 34

GFSFLT2_sfc_dewp_027.txt.gz
Dewpoint
23 25 26 26 25 27 28 26 27 32 33 33 34 34 34 35 37 38 40 42 43 45 48 51 53 54 55
24 26 25 24 25 26 26 24 26 30 32 32 33 33 34 34 35 37 38 39 41 44 45 48 50 53 54
25 25 25 26 26 27 25 23 22 30 31 31 32 33 35 35 36 37 39 39 40 42 45 46 49 50 52
26 26 27 27 28 24 21 24 25 25 26 28 31 32 33 35 35 38 40 41 40 39 44 45 48 51 51
26 28 30 25 23 22 23 23 24 24 25 26 28 31 32 34 34 38 38 38 39 40 39 41 44 45 50
30 29 23 20 22 22 23 23 23 26 28 28 28 27 28 30 33 35 36 36 37 38 39 40 44 45 46
23 22 22 21 22 25 27 28 26 26 28 26 29 29 31 31 34 33 34 36 37 37 40 43 44 45 47
21 20 23 26 28 27 28 28 27 27 28 26 28 30 28 31 34 35 36 35 37 38 39 42 44 45 47
26 27 27 28 26 24 26 25 23 24 27 25 27 28 30 31 29 33 35 40 40 41 42 43 45 46 46
21 22 23 23 26 24 26 25 24 23 25 25 26 27 25 29 32 32 32 33 35 39 39 42 43 42 43
20 21 22 23 24 25 26 26 25 24 26 26 27 27 27 27 28 30 30 32 36 36 38 39 41 42 42
22 22 22 23 24 25 26 27 28 28 29 29 27 27 26 26 24 27 29 32 35 34 37 42 44 44 46
22 22 23 25 26 26 27 27 29 29 31 31 30 28 26 24 23 24 27 32 33 34 36 37 40 42 42
23 23 24 24 24 26 26 27 28 28 29 31 30 28 25 27 27 25 29 29 32 32 33 33 36 38 39
22 22 22 23 24 25 29 28 26 24 23 25 27 27 27 28 29 31 31 31 32 32 33 32 32 36 38
22 22 22 23 24 26 26 25 24 23 23 23 23 23 27 29 31 29 30 30 32 32 33 31 31 34 36
22 22 22 23 24 23 23 23 22 23 24 23 21 20 23 20 26 32 28 30 30 30 32 32 31 33 37

GFSFLT2_sfc_dewp_030.txt.gz
Dewpoint
21 21 24 24 23 23 25 24 26 32 34 33 31 32 33 34 35 35 34 36 37 39 40 43 44 46 49
24 25 24 24 24 24 24 25 26 30 31 31 31 32 33 33 32 33 34 37 37 38 38 39 41 42 46
24 25 25 24 24 25 30 26 22 27 28 30 31 31 31 32 33 34 35 35 36 37 39 40 41 43 45
27 28 24 26 31 27 22 22 21 20 25 27 30 31 32 33 33 34 34 34 35 36 39 39 42 42 44
25 24 28 21 21 22 20 20 20 22 23 24 25 26 27 30 30 32 33 34 35 36 37 39 43 42 42
28 22 18 18 22 20 20 21 22 25 25 25 25 25 26 27 31 32 36 34 40 38 37 36 38 39 41
20 19 20 22 21 23 26 27 26 25 25 23 24 24 26 27 30 32 33 34 36 35 37 38 39 39 41
19 20 23 24 25 25 25 24 24 24 24 23 25 26 23 25 30 31 31 32 33 34 36 35 36 40 41
28 28 26 26 25 22 24 24 21 21 23 23 23 24 25 25 26 30 32 38 37 37 37 38 38 41 40
19 19 22 22 26 24 25 22 22 20 22 22 23 24 22 25 28 30 28 31 31 31 33 38 41 41 41
18 20 21 21 22 24 26 25 22 22 24 25 25 25 25 24 26 28 31 28 29 29 32 36 38 39 41
21 21 21 23 23 24 25 27 27 27 28 28 26 26 25 23 21 25 26 27 28 29 34 37 40 40 42
21 21 23 24 25 25 26 26 27 29 30 28 27 25 24 23 22 23 25 27 30 32 32 35 37 39 39
22 22 23 23 23 25 24 26 25 26 28 27 27 24 21 23 25 25 26 25 32 32 32 36 38 39 39
22 21 21 22 22 23 26 25 23 23 24 25 25 24 24 24 26 27 29 30 32 32 33 33 35 38 39
21 21 21 21 22 24 25 24 23 23 24 24 22 21 25 27 31 27 30 30 32 32 33 33 33 36 39
21 22 22 22 23 24 24 23 23 25 25 24 22 20 19 18 26 34 28 30 32 32 33 33 32 33 36

GFSFLT2_sfc_dewp_033.txt.gz
Dewpoint
20 21 22 24 22 24 26 24 24 31 34 36 34 32 32 32 33 34 34 37 38 38 38 41 42 42 42
22 25 25 23 24 26 23 25 27 32 33 31 31 30 31 31 32 33 32 33 33 34 36 36 38 41 42
26 23 23 29 25 24 28 23 22 26 28 28 29 30 31 32 32 32 32 33 36 36 37 38 38 39 41
24 28 24 24 29 19 17 19 21 20 24 26 29 29 31 31 31 30 31 32 33 34 34 34 35 36 38
25 24 27 19 18 19 19 21 21 21 21 23 25 26 25 28 28 29 30 32 33 34 35 36 36 36 38
28 22 19 19 20 19 21 24 22 25 24 22 23 22 23 24 29 30 31 33 35 32 38 35 36 38 38
22 21 21 20 22 27 26 24 23 23 23 21 22 22 23 24 29 29 30 30 30 33 34 35 37 36 36
21 21 24 26 23 22 26 26 25 22 22 21 22 21 21 22 28 29 30 31 32 34 34 34 35 34 35
29 27 25 26 25 25 23 22 19 19 21 21 22 22 23 23 23 29 30 31 33 37 37 37 38 37 36
17 18 21 22 27 24 25 21 20 19 21 22 23 23 21 24 25 26 27 30 30 31 32 32 33 32 34
17 19 22 23 23 25 26 24 21 21 23 26 25 25 24 23 25 26 27 27 28 29 30 31 32 33 34
21 21 21 22 23 24 25 26 26 26 27 29 26 25 22 19 19 23 25 26 27 28 28 31 33 34 36
21 21 22 23 24 24 25 25 25 27 28 29 28 26 24 20 19 22 25 26 29 29 30 31 32 34 33
21 22 23 23 23 24 23 23 24 24 26 27 29 26 22 21 22 22 26 27 29 32 32 33 34 36 36
21 21 21 22 22 23 24 24 23 23 23 26 26 25 24 22 21 25 28 30 32 32 32 34 36 37 38
20 20 21 20 21 23 23 23 23 23 25 24 24 21 24 26 30 28 29 29 32 32 33 33 32 38 40
20 21 20 21 21 22 21 22 23 26 25 24 23 21 19 18 23 34 28 30 33 32 32 32 32 35 38

GFSFLT2_sfc_dewp_036.txt.gz
Dewpoint
21 21 23 24 24 24 25 24 26 32 34 33 32 31 32 33 34 34 35 34 35 36 38 39 41 42 42
25 24 21 21 22 25 26 24 27 30 29 30 29 30 30 30 31 32 33 33 34 35 35 36 36 37 38
20 21 22 27 24 26 27 20 18 24 27 28 30 30 30 31 31 31 32 33 34 34 35 36 36 38 39
24 27 25 23 29 19 17 19 19 18 23 26 29 29 30 31 30 30 31 32 32 32 32 32 32 35 37
23 23 27 18 18 20 19 20 20 23 26 22 22 24 24 27 27 28 29 30 30 31 32 34 35 35 36
27 21 19 19 20 20 22 24 19 21 21 22 23 21 22 22 27 29 29 30 31 33 34 36 36 38 36
21 20 20 20 26 26 23 23 22 22 22 21 21 20 21 21 27 28 29 30 30 31 32 34 34 34 35
19 21 26 24 22 24 26 25 23 20 20 20 21 20 21 21 28 29 30 30 31 31 32 33 33 34 34
29 26 25 26 26 26 23 21 18 18 20 20 21 21 23 23 23 29 29 30 31 32 34 36 36 37 35
18 19 21 22 26 24 25 20 20 18 20 21 22 23 22 24 26 26 25 29 29 30 31 31 31 32 35
18 19 20 21 21 23 26 24 21 20 22 25 23 23 24 23 24 24 23 23 25 28 31 32 31 31 32
20 20 20 21 22 24 24 25 26 25 26 26 24 25 23 21 20 21 22 24 27 28 29 31 33 32 32
20 20 21 22 23 23 24 25 25 26 28 28 27 26 25 21 20 20 22 24 27 28 29 29 29 30 29
20 20 21 21 21 22 22 23 23 23 26 27 29 27 22 20 21 21 23 23 29 31 31 31 30 31 31
20 19 19 20 20 21 22 22 21 22 24 26 26 26 25 23 21 26 29 29 32 32 32 34 32 33 32
18 18 19 20 19 21 20 22 21 22 25 25 24 23 23 25 30 28 30 30 32 32 34 34 34 36 37
18 19 20 19 20 19 20 21 21 25 25 25 24 23 20 20 24 32 30 32 32 32 32 33 32 35 38

GFSFLT2_sfc_dewp_039.txt.gz
Dewpoint
21 22 23 20 20 22 23 23 24 32 34 33 31 30 31 31 32 33 34 36 37 38 39 40 40 40 40
25 21 20 21 22 23 26 27 30 30 30 29 30 30 30 31 32 34 34 33 33 34 35 36 37 39 40
21 22 23 25 25 27 26 20 18 24 27 28 29 30 30 31 32 32 34 34 34 34 35 36 37 37 39
24 25 24 27 25 19 17 19 19 19 24 27 29 30 30 30 29 29 29 30 31 32 33 33 34 36 37
26 24 20 17 17 18 18 20 23 24 21 21 21 21 22 26 26 28 29 30 30 31 31 32 33 34 35
24 19 17 17 19 20 25 21 19 22 21 23 23 21 21 21 27 29 29 30 31 32 34 34 34 35 35
19 18 18 20 27 24 23 23 22 22 23 22 21 19 20 19 27 28 30 31 31 32 32 33 34 34 35
19 22 28 23 22 24 26 25 24 20 20 20 20 19 20 21 27 28 29 30 31 32 32 32 32 34 33
30 26 25 26 26 26 23 21 18 17 19 19 20 21 22 22 22 29 29 30 30 32 31 31 32 34 33
18 19 22 22 26 23 24 20 19 18 19 21 21 22 20 22 24 25 25 29 29 30 31 31 31 29 32
18 19 20 20 20 22 23 23 20 20 22 24 23 22 22 22 23 24 25 24 25 26 29 31 32 33 32
19 20 19 20 21 22 23 23 24 24 26 26 24 23 23 21 20 22 24 26 27 26 27 30 34 34 34
19 19 19 21 21 21 22 22 23 25 26 26 26 26 26 23 21 22 24 25 27 27 28 28 28 29 30
19 19 20 19 19 20 20 21 21 21 25 27 29 28 24 24 24 22 24 25 30 31 32 31 30 29 29
18 18 18 18 18 19 20 21 19 21 22 25 27 27 27 26 23 25 29 31 32 32 32 31 29 29 30
18 17 17 18 18 19 19 20 20 21 23 25 25 24 24 25 30 28 30 32 32 32 33 33 31 32 32
17 17 19 17 18 17 18 20 20 22 24 26 24 23 22 20 25 30 29 31 32 32 32 32 32 34 33

GFSFLT2_sfc_dewp_042.txt.gz
Dewpoint
21 22 23 21 21 22 24 23 24 32 32 32 32 31 31 32 33 35 35 36 36 38 39 39 39 40 41
24 21 21 22 23 25 27 27 26 29 30 29 30 31 31 32 33 35 36 36 35 36 36 37 38 39 39
20 22 23 25 27 23 20 18 17 24 28 29 30 31 31 32 32 33 33 34 33 34 34 35 37 37 38
23 26 27 21 20 17 16 18 19 19 25 28 29 29 30 30 30 29 29 30 31 31 32 32 33 34 36
25 21 20 18 17 18 18 20 24 22 21 21 21 22 23 27 27 29 29 30 30 31 31 32 32 34 35
22 19 17 17 18 21 24 21 20 21 21 22 22 21 21 21 27 28 29 30 31 32 32 34 34 34 35
18 17 18 21 27 24 23 23 22 22 22 20 20 19 20 19 27 28 29 30 31 32 32 33 33 34 33
20 22 28 23 22 23 26 25 23 20 19 18 19 19 20 20 27 29 29 30 30 31 32 32 33 33 34
30 27 26 27 26 25 22 21 18 17 18 18 20 20 21 22 22 28 28 29 30 31 32 32 32 34 34
17 18 21 21 25 21 22 19 18 17 18 21 21 22 20 21 23 23 23 28 30 31 33 34 33 29 30
17 18 19 19 19 20 22 22 19 18 21 24 22 21 22 21 22 25 25 26 27 28 31 33 35 34 32
18 19 19 19 20 21 21 22 22 22 23 24 22 23 22 21 21 24 26 28 29 28 28 31 34 35 35
19 18 19 19 20 19 20 20 21 21 24 24 26 25 25 24 23 24 26 26 28 28 29 29 28 28 28
19 18 19 18 18 18 19 19 20 19 24 26 28 29 25 25 25 24 26 26 31 33 32 33 30 30 29
18 18 17 17 17 18 19 19 18 19 21 24 27 27 27 26 25 26 29 30 32 32 32 31 29 29 29
17 17 16 16 18 18 18 18 18 19 20 25 25 25 24 26 30 29 30 30 32 33 33 31 31 30 30
16 16 18 18 17 17 17 18 18 19 23 24 25 24 21 21 26 30 30 31 32 32 32 32 32 32 31

GFSFLT2_sfc_dewp_045.txt.gz
Dewpoint
22 22 21 21 21 23 25 24 25 30 31 31 32 32 32 33 34 35 35 36 37 38 39 39 39 40 41
23 22 20 22 23 25 21 18 19 24 29 30 31 31 32 32 33 34 34 35 35 36 37 37 39 39 39
21 23 24 27 22 20 18 19 18 25 27 29 30 31 32 32 32 32 32 33 33 34 34 35 36 37 38
25 28 24 22 23 20 19 20 21 21 25 27 29 29 30 31 31 30 31 31 32 32 33 33 33 34 35
25 22 23 19 18 19 20 22 23 22 22 22 22 23 25 28 27 28 29 30 31 32 33 34 33 34 34
25 20 18 18 20 23 26 22 21 22 21 22 24 22 22 23 27 29 30 31 31 32 33 34 36 36 36
20 19 20 21 28 26 25 24 24 24 23 20 21 20 21 19 27 29 30 31 31 32 33 33 35 34 34
21 23 28 26 23 24 27 26 24 21 20 21 21 20 21 22 27 29 30 30 31 32 33 33 33 33 33
29 28 26 26 26 26 24 22 19 18 20 19 21 22 23 23 24 27 28 29 31 34 35 35 35 34 34
17 18 20 20 25 21 24 21 20 19 19 22 23 23 21 22 25 26 25 28 31 33 35 37 37 35 35
16 18 19 19 19 21 23 24 21 20 21 24 24 23 23 23 25 27 27 27 29 30 32 33 36 36 33
18 20 21 22 23 23 23 24 24 23 24 24 23 23 23 22 23 28 29 30 32 31 32 33 34 37 38
21 21 22 23 23 23 24 23 23 24 25 25 25 26 26 25 26 27 28 30 32 32 34 33 33 32 30
21 21 22 22 21 22 21 22 22 22 25 27 29 29 28 28 28 27 29 29 33 34 33 33 34 32 29
20 20 20 20 20 21 22 22 20 21 22 25 28 30 29 29 28 30 31 32 33 33 33 32 33 32 29
19 19 19 19 20 21 21 21 20 21 22 25 27 26 27 30 30 32 32 31 32 33 33 31 32 30 30
19 19 20 21 19 20 20 21 21 22 25 27 26 27 24 23 28 29 30 31 31 32 33 32 32 32 31

GFSFLT2_sfc_dewp_048.txt.gz
Dewpoint
20 20 21 20 20 22 24 23 22 27 29 30 31 32 33 34 34 35 35 36 37 39 40 40 40 40 40
22 23 20 22 23 22 18 16 19 24 29 30 31 32 32 33 33 34 34 35 36 37 38 38 39 39 40
23 24 24 26 23 21 20 19 18 25 28 29 31 31 32 32 32 33 33 33 34 34 34 35 36 37 39
25 28 28 23 24 20 19 21 21 21 25 27 29 29 30 31 31 31 31 32 33 33 33 33 34 35 37
29 26 25 20 17 20 21 23 24 23 24 23 23 25 26 28 28 29 29 30 31 32 34 34 35 35 35
28 22 17 18 21 22 26 25 22 23 22 23 24 23 24 25 28 29 30 31 32 32 33 34 34 34 35
20 18 19 21 28 29 26 25 25 24 24 22 22 22 23 21 28 29 31 31 32 33 33 34 34 35 35
20 21 26 28 26 25 27 26 25 22 22 23 23 22 23 25 29 30 31 31 31 32 33 35 36 36 37
27 30 28 27 26 26 26 24 21 20 22 21 22 24 25 25 25 27 29 30 31 32 33 34 35 37 37
21 19 21 21 25 23 26 25 23 21 21 23 24 23 22 24 27 27 27 30 31 32 32 33 34 34 35
17 18 19 21 21 23 26 26 24 23 23 25 25 23 24 24 25 29 29 30 30 31 33 33 34 35 35
19 21 23 24 26 25 25 26 26 25 26 26 23 24 24 23 22 28 30 32 33 32 33 36 38 38 37
22 23 25 26 26 26 27 27 26 27 28 27 27 27 27 25 25 28 29 32 34 34 34 34 34 34 33
23 23 25 25 25 25 24 25 25 25 28 29 29 29 28 28 29 28 30 30 34 34 33 34 35 35 35
23 22 23 23 23 25 25 25 22 22 24 28 30 31 31 30 28 30 31 32 34 33 32 32 34 34 33
22 22 22 22 23 25 25 24 23 22 24 26 29 28 29 30 32 32 32 31 32 33 33 32 32 33 32
22 22 23 24 22 23 24 23 22 25 25 27 29 28 26 24 29 32 32 31 32 32 32 32 32 34 33

GFSFLT2_sfc_dewp_051.txt.gz
Dewpoint
22 22 21 22 22 22 26 23 24 28 30 31 31 32 33 34 34 35 37 37 38 39 40 40 42 41 41
22 23 23 22 23 25 24 19 20 25 29 31 32 32 32 33 33 33 34 34 35 36 38 39 39 40 40
22 22 23 25 28 23 21 22 19 26 28 30 31 32 32 32 32 33 32 33 34 34 34 35 36 37 39
23 26 28 27 24 22 20 22 22 21 27 27 30 30 31 31 31 31 31 32 33 33 33 33 34 35 37
27 29 25 21 19 20 20 22 23 26 23 23 23 23 25 28 28 29 30 31 32 33 34 34 34 35 37
29 24 22 19 20 22 24 25 23 24 23 23 24 23 24 24 28 30 31 32 32 33 34 35 35 36 36
22 19 19 20 25 26 27 25 24 24 23 23 23 22 23 22 29 30 31 32 33 33 33 35 35 35 36
21 21 24 26 30 28 25 25 24 23 23 22 22 21 23 24 29 30 31 32 32 32 33 34 34 35 36
26 28 29 28 26 24 25 24 22 20 22 21 23 23 23 23 24 27 29 30 32 33 33 34 35 36 36
24 22 22 22 26 23 27 25 23 21 21 23 24 23 20 22 24 24 25 29 31 32 33 34 34 32 34
19 19 20 21 23 24 26 26 23 22 23 24 24 22 22 21 22 24 25 26 28 29 34 34 35 35 35
20 20 22 23 25 24 24 26 26 25 26 26 23 23 22 21 20 24 26 27 30 30 32 37 37 36 37
22 23 24 25 25 26 26 26 26 25 26 25 26 26 26 24 23 24 26 28 30 32 33 33 33 34 33
23 23 24 24 23 24 24 24 24 23 24 25 28 28 27 27 27 27 28 27 31 33 33 32 33 35 35
23 23 21 22 22 23 24 24 23 22 23 25 27 28 29 30 28 28 28 30 31 32 32 32 32 34 34
22 22 22 22 22 23 23 23 23 23 24 25 26 27 26 28 30 29 29 30 31 32 32 31 30 32 35
23 22 22 22 21 21 22 22 22 23 24 26 26 25 23 22 25 30 29 29 31 31 30 31 31 32 35

GFSFLT2_sfc_dewp_054.txt.gz
Dewpoint
21 22 22 22 23 23 23 24 26 30 31 31 32 32 34 34 35 35 36 37 37 38 40 40 41 42 42
21 22 22 22 22 24 26 25 21 27 30 31 31 32 33 34 33 34 34 34 35 36 37 37 39 39 40
22 23 22 24 26 27 23 23 21 26 28 30 31 33 33 33 33 33 33 33 34 34 34 35 36 37 38
23 25 26 28 26 23 20 21 21 21 26 29 31 30 31 31 32 31 31 32 33 33 33 34 35 36 38
27 25 25 24 23 21 20 20 22 24 26 23 23 24 24 28 28 29 30 32 33 33 34 35 35 36 37
26 26 25 20 20 20 21 23 23 25 23 23 23 23 24 24 29 30 31 32 32 33 34 35 36 36 36
24 20 19 20 23 24 26 27 24 23 24 23 22 21 23 22 28 30 31 32 33 33 33 34 35 36 37
22 21 23 24 27 28 26 24 24 23 23 22 22 21 22 23 29 30 30 31 31 32 33 33 34 35 35
26 28 29 28 26 23 24 24 21 21 22 21 21 22 22 22 22 27 28 29 31 31 33 33 34 35 34
23 23 23 22 25 22 24 24 22 20 20 22 22 22 19 20 21 22 23 27 29 31 32 33 34 33 35
19 19 19 20 21 23 25 25 23 21 22 24 23 22 21 20 20 22 23 23 25 26 31 33 34 34 35
19 20 21 22 23 24 24 25 26 25 26 26 24 23 22 20 19 22 24 26 27 28 29 32 34 36 36
21 22 22 23 23 24 24 24 25 25 25 25 25 24 24 22 22 23 24 26 29 30 31 31 33 32 32
21 22 23 22 21 22 23 23 22 22 24 23 25 26 25 25 26 25 26 26 29 30 32 33 32 32 32
21 22 21 21 21 21 22 23 22 20 21 23 25 27 27 27 25 25 27 28 30 30 31 30 31 31 32
21 21 21 20 20 21 22 21 20 20 22 23 24 25 24 24 27 27 28 27 29 29 30 30 29 30 31
21 20 20 20 20 19 19 20 19 20 21 24 26 25 22 20 24 28 28 28 28 29 30 30 29 30 31

GFSFLT2_sfc_dewp_057.txt.gz
Dewpoint
21 22 22 22 23 23 24 23 26 32 31 32 32 33 33 34 34 36 36 37 38 39 40 41 42 41 41
22 22 23 23 23 23 25 27 25 28 30 31 31 32 33 34 34 34 34 34 35 35 36 37 38 39 41
22 24 24 25 26 26 28 25 23 26 28 30 31 33 33 33 33 33 33 33 34 34 34 35 36 37 38
23 24 26 24 25 26 23 22 21 20 24 29 31 31 31 32 32 31 31 32 33 33 34 35 36 37 38
24 24 25 24 23 22 20 21 21 23 24 25 24 24 24 28 28 29 30 32 32 33 35 36 36 36 38
25 24 23 21 21 21 21 22 22 25 23 23 24 23 23 23 28 30 31 31 32 32 34 35 36 36 37
24 23 22 21 23 23 26 27 25 24 24 23 23 22 22 22 28 29 31 31 32 32 33 33 34 35 35
24 23 23 25 28 26 25 24 23 22 22 21 21 20 21 22 28 29 30 30 30 31 32 32 33 34 35
27 28 29 28 26 23 22 22 19 20 21 21 20 21 21 21 22 27 27 28 29 30 31 32 33 34 34
23 21 21 21 25 22 22 22 21 20 20 21 21 22 20 21 21 21 22 26 28 30 30 32 33 31 33
17 18 19 20 22 23 24 24 22 21 22 24 23 22 22 20 21 22 22 22 23 25 29 31 32 33 33
19 19 21 22 22 23 23 24 24 24 24 24 23 23 21 20 18 21 23 24 25 26 27 30 33 34 34
20 20 21 22 23 23 23 22 22 23 24 23 23 23 23 21 20 21 23 24 26 27 27 29 29 31 32
21 21 22 22 21 21 21 21 20 19 23 23 21 22 22 23 24 23 24 24 26 27 29 30 30 32 32
20 20 20 20 20 20 20 20 20 19 19 21 22 23 24 24 23 24 24 25 26 28 28 28 29 29 30
19 19 19 19 19 20 21 20 18 18 19 20 20 21 22 23 27 24 25 25 26 28 29 28 28 29 30
19 19 20 20 21 19 19 19 19 18 19 20 23 23 19 18 22 27 27 27 26 27 28 29 29 29 30

GFSFLT2_sfc_dewp_060.txt.gz
Dewpoint
21 22 22 22 23 24 25 24 25 32 33 33 33 33 33 34 34 35 36 38 38 39 40 41 41 41 42
22 23 23 24 24 24 25 26 26 31 32 32 32 32 33 34 34 34 33 35 35 35 36 37 38 40 40
22 23 24 25 25 25 24 26 26 28 29 30 31 32 33 33 33 33 33 33 34 34 34 35 36 38 39
23 23 24 25 24 23 22 22 21 21 25 28 31 31 32 32 32 31 31 32 33 33 34 34 36 36 38
24 24 24 23 22 22 21 21 22 23 23 25 25 25 25 29 28 29 30 32 32 33 33 34 35 36 37
27 24 23 23 22 22 22 22 22 24 24 23 23 23 23 24 28 30 31 31 32 33 34 35 35 36 37
24 24 23 23 24 23 24 26 24 24 23 21 21 21 22 22 28 29 30 31 32 31 32 33 34 35 34
25 25 25 25 29 27 25 24 23 22 21 20 21 20 21 22 27 29 30 30 30 30 31 31 32 32 34
27 29 29 28 26 23 22 21 19 19 20 20 20 20 21 21 22 28 28 28 28 29 30 31 31 32 32
20 19 21 20 25 22 21 20 20 19 21 20 21 22 19 21 21 22 21 26 28 29 29 30 31 29 30
17 18 19 20 21 22 23 23 21 20 21 24 22 21 21 19 20 22 22 22 21 23 27 30 31 31 31
19 19 20 21 21 22 23 24 24 23 23 24 21 20 20 18 17 20 22 23 24 24 25 28 31 32 33
19 20 20 21 22 22 23 23 21 22 24 23 23 22 21 19 19 19 21 22 24 25 26 26 27 28 29
19 20 21 20 20 20 20 20 20 19 21 22 21 22 20 21 21 20 22 22 24 25 25 26 28 30 30
19 19 19 19 19 19 20 19 18 18 18 19 21 22 22 22 20 21 22 23 24 25 26 26 28 29 29
18 18 18 18 18 20 21 19 18 17 18 19 19 19 19 21 25 22 23 23 25 26 27 26 26 28 29
18 18 18 20 20 18 18 19 18 18 18 19 20 21 18 15 19 24 25 26 26 26 26 26 26 28 29

GFSFLT2_sfc_dewp_063.txt.gz
Dewpoint
20 21 21 23 23 24 26 24 25 31 33 33 34 34 34 34 34 35 36 37 38 39 40 40 41 41 41
20 22 22 23 24 24 24 25 25 29 32 33 32 33 33 33 34 34 35 36 35 36 37 37 38 38 39
21 23 23 24 24 25 25 25 25 28 29 30 31 32 33 33 33 33 33 34 34 33 34 35 36 37 38
23 23 23 25 25 24 22 22 22 22 26 28 31 31 32 32 32 32 32 32 33 33 33 34 34 36 38
23 23 22 25 23 23 22 22 23 24 23 24 25 25 25 28 28 29 30 32 33 33 34 34 35 35 37
18 26 24 23 23 23 23 22 22 24 23 22 24 22 22 23 28 30 31 32 32 32 32 34 34 35 36
25 23 23 23 24 24 25 24 24 23 23 21 22 20 21 21 28 29 30 31 32 32 31 32 33 34 35
24 24 25 25 28 26 25 23 23 22 22 19 20 19 20 21 28 29 30 31 31 31 31 31 31 31 32
27 29 29 28 26 23 22 22 19 18 20 19 19 20 21 21 21 28 28 29 29 29 30 31 31 31 31
20 19 20 20 25 22 20 20 20 18 20 19 20 21 18 21 21 22 20 26 28 29 30 30 30 26 29
17 18 19 20 21 22 23 22 20 19 21 23 21 21 21 19 20 21 21 21 21 22 27 28 29 29 28
18 19 20 21 21 21 22 22 23 23 23 24 21 19 18 17 16 19 21 21 22 22 23 26 29 31 31
19 20 20 21 21 20 21 21 21 22 24 23 23 21 21 18 17 18 20 21 22 22 23 24 25 25 25
19 19 20 19 19 19 18 19 19 18 21 22 21 21 19 20 20 18 19 19 21 23 24 25 26 27 27
19 18 18 18 18 18 18 18 17 17 18 19 21 21 21 20 19 19 20 20 22 23 24 24 25 26 27
18 17 17 17 17 19 20 18 17 17 18 19 19 19 19 20 24 20 21 21 22 23 25 25 25 27 27
16 16 17 18 19 17 17 18 18 18 19 20 20 20 18 16 20 24 24 24 24 25 26 25 25 26 26

GFSFLT2_sfc_dewp_066.txt.gz
Dewpoint
20 20 21 21 22 24 25 25 25 31 33 33 33 33 34 34 34 35 36 37 38 39 40 41 41 40 41
20 21 21 22 23 23 24 24 25 29 32 32 32 33 33 34 34 35 36 37 37 37 37 37 38 39 40
21 22 23 24 23 24 25 25 25 29 30 31 31 32 33 33 33 33 33 34 34 34 34 35 35 36 37
22 22 23 24 24 24 24 23 23 23 27 28 30 31 31 32 32 32 32 32 33 34 34 33 33 35 36
23 24 21 24 24 24 23 23 23 24 24 24 24 25 25 28 28 29 30 32 33 33 33 35 35 35 36
19 24 25 23 23 23 23 24 22 24 23 23 23 22 23 23 28 30 31 32 32 32 32 33 35 35 35
25 23 23 23 24 24 25 24 24 23 23 21 22 21 21 21 27 29 30 31 32 32 32 32 33 34 34
24 24 24 25 26 25 24 23 22 22 22 19 20 19 20 21 27 29 30 30 31 31 31 31 32 33 32
27 28 28 27 26 24 21 21 18 18 19 19 19 19 20 20 20 27 28 28 29 29 30 30 30 30 31
20 19 20 20 26 22 19 19 19 18 20 20 20 21 17 20 21 22 20 25 27 28 29 30 30 27 28
17 18 19 20 21 21 22 18 20 19 20 23 19 20 20 18 19 20 20 20 20 21 26 28 28 28 27
18 19 20 20 21 21 21 22 22 21 22 22 20 18 19 17 16 18 20 21 21 21 22 25 28 29 30
18 19 20 20 20 19 19 20 19 20 21 21 21 20 20 18 17 18 19 20 22 21 22 22 22 24 24
18 19 19 17 18 18 17 18 17 17 20 20 20 20 19 19 19 18 19 19 20 22 22 23 24 25 25
17 18 17 17 17 18 17 17 17 17 17 19 21 22 22 21 19 19 19 19 20 21 21 22 23 24 25
16 16 16 16 16 19 19 17 17 17 18 19 20 20 20 22 24 19 20 20 21 22 24 23 23 25 25
15 15 15 16 19 16 16 18 18 18 19 21 24 23 20 17 21 25 25 25 25 25 25 25 25 25 26

GFSFLT2_sfc_dewp_069.txt.gz
Dewpoint
21 21 21 22 23 24 26 25 25 30 32 33 33 34 34 34 35 35 36 37 38 39 41 41 42 42 42
21 21 22 23 24 25 24 24 25 28 32 33 33 33 34 34 34 35 35 37 37 37 37 38 39 40 40
22 23 23 24 25 25 25 26 24 28 30 31 31 32 33 33 33 33 33 34 34 34 35 35 36 37 38
24 26 25 26 26 25 23 22 22 23 27 28 30 31 32 32 32 32 32 32 33 34 34 34 34 34 36
27 26 27 25 23 23 21 22 24 25 24 23 23 24 25 28 28 29 30 32 33 33 34 35 35 37 38
28 25 24 22 22 22 24 24 22 23 22 23 24 22 23 23 27 30 31 31 32 32 33 34 35 35 36
24 22 22 21 27 27 26 26 24 24 23 22 22 21 22 21 27 29 30 31 32 32 32 32 32 34 35
23 23 25 26 27 27 27 25 23 22 22 21 21 19 20 21 27 28 30 30 30 30 31 31 31 32 32
27 28 28 28 26 25 25 23 20 19 20 19 20 21 22 22 21 26 27 27 28 29 30 30 31 31 30
21 20 21 21 25 22 24 23 22 20 21 22 21 21 21 20 21 21 21 25 27 28 29 29 30 27 28
17 19 19 20 21 22 24 24 21 22 22 25 24 22 22 21 20 22 22 22 21 22 26 27 28 28 28
19 20 21 22 23 23 23 24 24 24 25 25 22 22 21 20 19 23 25 25 25 23 23 26 28 29 30
20 21 22 23 24 24 24 24 24 24 24 24 23 23 23 21 21 21 23 24 26 26 26 25 25 25 26
20 20 21 22 22 23 22 23 22 23 26 26 24 24 22 23 23 21 23 23 26 27 27 26 26 26 26
20 19 19 20 20 22 22 22 21 21 22 24 26 26 25 24 22 23 24 25 26 26 26 25 26 27 26
19 19 18 19 20 22 24 22 20 21 23 24 25 25 26 26 27 24 25 25 27 28 28 25 25 27 27
18 18 18 19 21 21 21 21 22 23 24 25 27 26 22 21 24 28 30 29 29 27 29 28 28 28 28

GFSFLT2_sfc_dewp_072.txt.gz
Dewpoint
32 31 29 27 23 23 25 24 24 29 31 32 33 34 35 35 35 36 36 36 37 38 40 41 41 41 42
26 24 23 24 25 26 24 23 24 28 31 32 34 34 34 34 35 35 35 35 35 36 36 37 38 38 39
24 26 25 25 26 25 25 24 22 26 28 30 31 32 33 34 34 34 34 34 34 35 35 36 36 36 38
26 26 26 26 26 24 22 21 21 21 26 28 30 30 31 32 32 32 32 33 34 34 34 34 34 35 36
28 26 27 24 22 21 19 21 23 24 24 23 23 24 25 28 28 29 29 31 32 33 34 34 34 35 36
30 25 23 21 20 20 23 24 23 25 23 23 24 23 24 24 28 29 31 32 32 33 33 33 34 35 35
25 22 20 19 27 28 25 27 26 25 24 22 23 21 23 20 27 29 30 31 32 32 32 32 32 33 35
23 21 22 24 27 28 28 26 24 23 23 24 22 21 22 23 28 29 30 30 30 31 31 31 31 31 32
26 28 29 28 27 25 26 26 23 22 23 22 22 23 25 25 23 26 27 28 29 30 30 31 31 31 30
21 21 21 21 25 24 27 25 24 22 23 24 24 24 23 23 24 24 23 27 28 29 30 30 30 27 28
18 19 21 22 23 24 26 26 24 23 25 27 27 25 25 24 23 26 26 25 24 25 28 29 29 29 29
20 22 24 26 27 27 26 27 26 27 28 28 24 24 23 21 21 25 28 28 28 27 27 28 29 30 30
23 25 26 26 27 28 30 30 28 29 29 28 26 24 24 22 22 23 25 27 28 29 29 29 28 28 28
23 23 25 26 26 27 26 26 25 26 32 30 29 27 23 25 25 23 26 25 28 29 30 29 29 28 27
23 23 23 25 25 26 25 26 25 24 25 29 31 30 29 27 25 25 26 26 29 30 29 28 28 29 29
22 22 23 23 23 25 27 26 24 23 24 28 28 27 28 29 30 27 28 28 30 31 31 29 29 30 30
22 22 22 22 24 24 25 26 24 24 25 28 28 27 24 23 27 29 30 31 30 29 30 30 29 30 31

GFSFLT2_sfc_dewp_075.txt.gz
Dewpoint
34 34 33 33 32 31 29 24 25 30 31 32 33 34 35 36 36 37 37 37 37 38 38 39 40 41 41
31 31 31 27 27 28 27 25 25 28 31 31 32 33 34 35 35 36 36 36 36 37 37 37 37 38 38
25 27 28 27 27 26 26 26 24 27 27 29 31 32 33 34 35 35 35 35 35 35 35 36 36 37 37
27 29 28 29 29 27 25 25 22 21 26 29 31 30 31 32 32 32 32 32 33 34 34 34 34 35 36
29 29 30 26 25 25 22 22 24 26 26 26 26 26 27 29 29 30 30 31 32 33 34 33 33 34 35
32 27 26 24 23 22 25 24 24 27 25 25 26 24 25 25 29 30 31 31 32 33 33 33 32 33 33
27 25 23 22 28 27 27 27 26 27 25 24 25 24 25 23 29 30 31 31 32 32 32 32 33 33 32
26 23 23 24 27 27 28 26 25 25 26 24 24 24 24 25 29 30 31 31 31 31 32 32 32 32 32
23 26 29 29 28 27 26 26 24 23 25 23 24 24 25 25 25 29 29 29 30 31 31 31 31 31 30
23 23 22 22 25 25 27 25 24 24 26 26 25 25 24 24 25 25 24 28 29 30 31 31 31 27 27
20 21 22 24 25 26 27 28 25 24 25 27 24 24 24 23 24 25 24 25 25 27 29 30 30 30 28
22 24 26 26 27 27 26 27 28 27 27 27 25 24 22 21 20 23 24 25 26 26 27 29 30 31 31
24 25 25 26 26 26 28 28 28 28 28 27 27 26 25 22 21 22 23 24 25 26 29 29 28 29 28
24 24 25 25 25 26 26 25 24 24 27 28 29 29 26 25 24 23 24 24 26 27 28 29 29 29 28
23 24 23 24 24 25 26 25 24 24 24 26 28 30 30 28 25 25 25 26 27 27 28 28 29 30 29
22 22 22 22 22 24 26 25 24 24 25 26 26 27 27 28 30 27 28 28 29 29 30 29 28 29 29
24 22 22 23 22 23 24 25 24 23 25 27 27 27 24 21 25 30 28 28 28 28 29 29 28 29 30

GFSFLT2_sfc_dewp_078.txt.gz
Dewpoint
35 35 35 35 34 33 32 30 27 31 31 32 33 34 34 35 36 37 37 37 38 38 38 39 40 40 40
33 32 32 30 28 27 27 27 27 28 31 32 31 31 33 34 35 36 36 36 36 36 37 38 38 38 38
26 28 28 27 26 27 27 27 26 29 27 28 30 32 33 34 34 34 34 35 35 35 35 35 36 37 37
27 28 28 28 28 27 26 25 23 23 27 29 30 31 32 32 32 32 32 32 33 33 33 34 34 34 36
28 28 27 26 25 24 21 24 24 26 26 26 26 26 27 30 29 30 31 32 32 33 34 33 34 34 34
28 27 26 23 22 24 24 23 22 26 25 26 26 26 26 27 30 31 31 32 32 33 34 33 33 33 34
27 26 23 22 24 23 24 22 24 27 26 24 25 25 26 25 30 31 31 32 33 33 33 33 33 33 34
25 24 23 23 25 23 23 24 25 25 25 23 24 23 24 26 30 30 31 32 31 31 32 33 32 32 33
23 26 28 29 28 25 21 19 23 22 24 23 23 24 24 24 25 29 29 29 30 31 32 32 32 32 31
23 23 23 22 25 23 20 16 24 23 24 21 22 23 22 24 23 24 24 28 29 30 31 31 31 29 28
20 20 22 24 26 26 27 28 26 25 25 28 23 24 24 23 23 23 23 24 24 25 29 30 31 30 30
21 22 23 25 27 26 25 27 28 27 28 28 25 24 23 21 20 22 23 24 24 24 25 28 30 30 31
21 22 25 26 27 27 28 29 29 29 29 26 27 26 26 23 22 22 23 24 25 25 24 26 26 27 27
19 23 24 25 25 26 25 25 24 24 28 29 28 28 26 26 26 24 24 24 26 27 27 28 28 28 28
24 23 24 24 24 25 25 24 23 24 24 26 28 29 28 28 26 26 27 27 28 27 27 27 29 30 29
23 23 23 23 23 23 24 23 24 24 24 25 26 27 27 26 30 27 27 26 28 28 29 28 27 29 28
24 23 23 23 23 22 22 23 23 24 24 26 27 25 22 20 23 29 26 27 28 29 29 28 28 28 29

GFSFLT2_sfc_dewp_081.txt.gz
Dewpoint
36 36 35 35 35 35 35 32 31 32 33 33 34 34 35 35 35 37 37 38 38 38 39 40 41 41 41
34 34 33 32 30 29 27 26 28 31 32 32 31 31 32 34 35 36 36 35 36 36 36 37 38 39 39
27 28 29 28 27 27 27 28 27 28 27 28 30 32 33 34 34 34 34 34 35 34 35 35 36 36 37
28 29 29 29 29 27 27 25 23 23 26 28 30 31 32 32 33 32 32 32 33 33 34 34 34 35 36
30 28 27 25 25 23 22 24 23 24 25 25 25 27 28 30 30 31 32 33 33 34 34 34 34 35 35
27 27 25 23 22 23 23 22 22 25 26 25 27 25 26 27 30 31 31 32 33 33 34 34 34 34 35
27 26 24 22 22 21 23 20 21 26 26 23 25 25 26 25 30 31 32 32 32 33 32 33 33 34 34
25 24 23 23 23 22 22 23 24 25 25 19 24 23 24 25 29 30 30 30 30 31 32 33 33 33 34
25 27 27 27 27 24 20 17 19 22 23 23 23 23 23 24 24 27 28 29 29 31 31 32 32 32 32
22 21 22 23 28 24 18 11 22 18 23 22 20 25 21 23 23 24 24 27 28 29 30 30 31 29 29
20 21 23 24 25 26 26 22 25 25 26 28 25 25 25 23 22 23 23 23 23 24 28 29 30 31 29
22 22 22 25 27 26 26 27 28 27 28 28 25 25 24 22 21 22 23 24 24 24 24 27 30 31 32
20 20 26 26 27 27 28 29 29 28 27 28 27 26 26 23 22 23 24 24 26 25 24 25 26 27 27
18 23 25 25 25 26 25 25 24 21 23 24 28 27 25 25 25 24 25 25 27 27 27 28 28 29 28
24 23 23 24 24 25 24 23 21 20 21 23 26 26 26 25 25 26 26 26 27 27 28 28 29 29 28
23 24 23 23 22 24 24 16 20 20 21 23 23 24 24 24 28 26 26 25 26 26 27 27 27 28 28
22 23 23 23 23 22 16 17 19 20 21 22 21 22 21 18 22 25 22 25 26 26 28 28 28 28 28

GFSFLT2_sfc_dewp_084.txt.gz
Dewpoint
36 36 36 36 37 38 37 36 35 36 34 34 34 35 35 35 35 35 37 37 37 39 39 40 41 42 42
34 34 34 35 35 30 29 27 28 30 33 33 33 32 32 33 35 36 36 36 36 37 38 38 39 40 41
30 31 31 29 28 27 28 28 27 27 27 29 30 31 33 34 34 35 35 34 35 35 35 36 36 37 37
29 30 30 29 28 27 26 24 23 23 25 27 30 31 32 33 33 32 32 32 33 34 35 35 34 35 36
29 27 25 25 24 23 21 22 22 23 25 26 26 26 27 30 30 31 32 33 34 34 35 35 34 35 36
19 24 24 23 22 22 21 19 19 25 25 25 25 25 26 26 30 31 32 32 33 33 34 34 34 35 35
25 24 23 22 20 19 21 17 19 25 25 23 25 24 25 25 29 31 32 32 32 32 33 33 34 34 34
26 24 23 23 23 20 20 22 24 24 25 17 23 23 24 24 29 29 28 30 31 31 32 32 32 33 34
26 26 27 27 27 24 20 17 18 22 23 23 23 23 24 24 24 26 28 28 29 30 31 31 31 32 31
22 21 23 26 29 24 18 10 13 15 23 26 23 23 18 22 23 23 23 28 29 29 30 30 31 28 28
19 22 24 24 25 25 25 20 22 23 26 27 23 26 25 19 22 23 23 23 23 24 28 29 30 30 28
22 21 22 23 25 25 26 27 28 27 28 28 25 21 22 21 21 22 23 25 24 24 24 27 30 31 31
19 19 23 25 25 27 28 28 28 28 26 16 23 22 24 23 22 23 24 25 25 23 25 26 26 28 28
17 24 24 24 24 26 24 25 24 20 21 21 19 19 24 24 24 24 25 24 25 26 26 27 28 28 28
24 24 23 24 24 25 24 24 20 20 19 21 23 24 24 24 24 25 25 25 26 25 25 25 26 28 28
24 24 23 23 23 24 23 17 18 19 19 19 20 20 23 24 27 24 25 24 25 25 25 26 26 28 28
23 22 23 23 23 21 11 14 17 17 18 18 14 21 19 17 21 25 21 22 25 25 26 27 27 27 28

GFSFLT2_sfc_dewp_087.txt.gz
Dewpoint
36 36 36 37 38 39 39 38 37 38 36 34 35 35 35 35 35 36 36 37 38 38 40 41 41 41 42
34 35 35 36 36 35 31 29 29 30 32 33 34 33 33 33 33 35 36 36 37 37 37 38 38 39 40
31 32 31 30 28 28 28 28 26 27 27 29 30 31 33 33 34 34 34 35 35 35 35 36 37 37 38
29 30 30 29 28 27 25 23 22 22 25 27 30 31 31 32 33 33 33 33 34 35 35 35 36 36 36
26 26 23 24 23 22 21 21 22 23 25 25 25 26 26 29 29 31 33 34 34 35 35 35 35 35 37
17 24 23 23 22 21 20 19 18 24 24 24 25 24 25 25 30 31 32 33 34 34 34 33 34 35 36
24 24 23 23 20 18 20 16 18 24 24 23 24 24 24 24 29 31 31 31 32 32 33 33 33 33 33
26 25 24 23 22 19 18 21 24 24 24 17 23 23 24 24 29 29 29 29 30 31 31 32 32 32 32
26 26 27 28 27 23 20 17 18 22 23 23 22 22 24 24 24 27 28 29 29 30 31 31 31 32 30
22 21 24 27 29 23 17 9 12 15 23 22 20 21 17 21 23 23 23 28 29 29 30 31 31 29 28
19 22 23 24 25 25 24 15 23 23 24 27 23 25 24 18 22 23 23 24 23 25 29 30 30 30 29
22 20 21 21 24 26 25 28 28 27 27 28 25 23 16 21 20 21 22 24 25 24 25 27 30 31 31
19 18 21 26 26 26 27 28 27 28 29 22 23 20 22 22 22 23 23 24 26 23 21 24 25 26 26
16 20 25 24 24 26 24 24 23 20 19 16 15 13 19 23 24 23 23 23 22 26 25 26 26 27 27
23 24 24 24 24 25 24 24 22 16 20 20 21 21 21 21 21 23 23 23 25 24 24 24 25 26 26
24 24 23 23 23 24 24 20 19 17 16 14 12 15 18 21 26 22 22 22 24 24 23 24 25 26 27
23 23 23 22 22 22 18 12 16 16 16 15 6 15 17 16 20 24 21 16 21 23 24 25 25 26 26

GFSFLT2_sfc_dewp_090.txt.gz
Dewpoint
37 37 37 38 38 40 39 38 38 39 37 35 34 35 35 36 35 35 36 37 37 38 39 41 41 41 42
35 35 35 36 36 35 33 31 30 30 32 33 33 33 33 33 33 33 35 36 37 36 37 38 39 39 39
31 32 31 29 29 29 28 27 25 26 27 29 30 30 31 33 34 34 35 35 35 36 36 36 37 37 38
30 31 30 28 27 25 23 22 22 22 24 27 29 31 31 32 32 33 33 33 34 35 35 36 35 36 37
25 25 23 24 23 22 21 21 21 23 24 24 25 25 25 29 29 30 32 33 34 35 35 35 34 34 35
21 23 23 22 22 21 20 18 16 23 24 24 25 24 24 25 29 31 32 33 34 34 33 33 34 34 34
24 23 23 23 20 18 20 16 17 24 24 22 24 23 24 24 29 30 31 32 30 31 32 33 33 33 33
26 25 24 23 21 18 18 20 24 24 24 17 22 23 23 24 28 29 30 29 30 31 31 32 32 32 32
27 26 28 28 27 23 20 17 17 21 23 22 22 22 23 23 23 27 29 29 29 30 31 32 32 32 31
21 21 25 27 28 23 17 8 11 15 22 21 20 21 16 21 22 22 23 27 29 29 30 31 31 29 27
19 22 23 24 24 25 23 18 23 23 24 27 20 25 24 19 22 23 22 23 23 25 29 30 30 30 28
21 19 20 21 22 24 25 28 29 27 28 27 24 24 22 21 20 21 21 24 24 24 25 27 30 30 31
18 17 18 25 26 26 26 27 27 27 28 28 27 25 22 22 21 21 23 22 24 23 20 22 25 26 25
15 18 25 25 24 25 24 24 22 15 19 13 11 10 13 19 21 21 22 22 20 23 24 25 25 26 26
20 24 22 24 23 25 24 23 22 14 14 18 20 19 18 17 19 20 20 21 23 23 20 23 24 25 25
21 24 23 23 23 23 24 23 20 15 12 11 8 11 14 20 24 19 18 19 21 21 20 22 22 24 25
16 23 23 23 22 22 21 21 18 14 15 10 3 9 13 14 19 24 21 20 18 21 23 22 22 24 25

GFSFLT2_sfc_dewp_093.txt.gz
Dewpoint
38 38 39 40 39 40 39 38 37 38 36 35 34 35 35 35 35 35 36 36 37 38 39 39 39 38 40
37 36 37 37 36 35 33 30 29 30 32 33 33 33 33 33 34 34 34 35 36 37 38 37 38 39 39
34 34 32 30 29 29 28 27 24 27 27 28 30 30 31 31 33 34 35 35 36 36 36 36 37 37 38
31 31 30 29 29 28 27 25 24 21 23 27 29 31 31 31 32 33 33 33 34 34 35 36 36 36 36
29 28 29 27 26 24 22 22 22 23 24 24 25 25 25 28 29 29 31 33 34 35 35 35 35 34 35
30 26 25 25 24 23 23 22 16 25 25 24 25 24 25 26 28 31 32 33 33 33 33 34 34 34 34
24 25 25 25 27 26 23 24 24 25 26 22 24 22 25 23 28 31 32 32 31 30 32 33 33 33 33
27 27 26 25 25 26 27 26 25 25 25 25 24 23 24 24 27 30 30 31 30 31 31 32 32 33 33
28 28 28 29 26 26 27 27 23 22 24 24 24 24 24 24 23 26 27 28 29 30 31 32 32 32 31
21 21 25 29 28 25 27 27 26 25 25 26 25 24 26 23 24 24 23 25 28 29 30 31 31 29 28
19 22 24 25 25 25 26 27 27 25 25 28 27 26 26 25 24 25 24 24 23 25 27 29 30 30 29
21 23 24 26 26 26 25 26 28 28 28 30 27 26 25 23 23 25 25 25 26 26 25 27 30 30 31
22 23 25 26 28 27 27 28 29 29 30 30 28 27 26 23 23 23 24 26 26 28 28 27 27 27 28
23 24 26 26 25 26 25 25 24 25 27 26 25 23 24 24 24 22 23 24 28 28 28 27 27 27 26
24 24 23 23 23 25 25 25 23 23 24 24 24 24 24 23 22 23 24 25 27 28 27 26 27 26 25
25 24 24 24 24 25 25 24 23 21 22 22 22 21 22 23 26 24 24 25 26 27 27 25 25 26 25
24 24 24 24 23 23 22 22 21 20 22 22 20 19 19 18 21 26 25 25 25 25 25 25 25 26 25

GFSFLT2_sfc_dewp_096.txt.gz
Dewpoint
41 40 40 41 40 41 40 39 38 38 37 35 35 35 35 35 36 36 36 36 36 37 38 38 38 38 40
39 38 39 39 38 37 34 31 31 31 32 33 33 33 33 33 34 34 34 35 35 36 37 38 38 37 38
38 37 35 35 33 31 30 29 25 27 26 27 30 31 31 32 32 32 34 35 36 36 36 36 36 37 37
36 35 33 31 31 30 29 28 27 22 22 25 29 29 31 32 32 32 33 34 34 34 35 36 36 36 37
35 33 33 30 29 27 25 24 23 23 21 21 23 24 25 28 30 30 30 32 34 35 36 36 35 35 35
34 30 28 27 25 24 24 23 20 23 23 22 26 25 25 26 25 30 32 33 34 34 33 33 34 35 35
23 21 22 24 28 28 25 24 24 24 26 24 25 23 25 22 27 31 32 33 33 30 32 33 33 33 34
26 26 26 26 26 29 29 27 25 25 26 27 25 24 25 26 26 32 31 32 32 31 32 32 33 33 34
29 29 29 28 26 28 28 27 25 23 25 24 26 26 27 26 24 27 28 30 31 31 31 32 32 32 32
22 24 24 29 30 26 29 30 29 28 26 27 27 27 29 27 25 25 25 26 28 30 30 31 31 29 29
19 20 22 26 25 25 27 30 28 28 26 28 27 27 27 28 27 27 27 26 25 26 28 29 29 30 30
19 21 23 26 27 27 26 28 27 29 29 31 27 27 26 25 25 28 29 29 28 27 27 28 29 30 31
21 25 27 29 31 29 30 30 31 32 32 31 29 28 27 25 25 25 27 28 30 31 30 29 28 27 29
23 25 28 28 27 26 26 26 26 26 32 31 29 28 26 25 25 24 26 27 30 31 31 29 28 27 27
25 26 26 26 25 26 26 26 24 24 24 26 27 27 27 27 24 26 28 29 30 31 29 28 29 28 27
26 26 26 26 25 25 26 25 24 23 24 24 24 23 24 26 28 27 27 28 30 29 29 27 26 28 26
26 27 27 26 25 24 24 22 22 22 23 24 23 22 20 19 22 28 27 27 27 28 28 27 27 28 26

GFSFLT2_sfc_dewp_099.txt.gz
Dewpoint
42 41 42 42 41 41 41 40 39 39 38 37 36 36 36 36 36 36 36 36 36 36 37 39 38 38 38
40 40 41 41 41 40 36 33 34 32 34 34 34 34 33 33 33 33 34 34 34 36 37 37 38 37 37
40 39 37 38 37 34 33 31 26 30 29 29 30 31 32 32 32 33 32 34 35 35 35 36 36 37 37
38 37 36 34 35 33 31 30 29 23 24 26 27 28 30 31 32 32 32 34 34 34 34 36 36 37 37
38 35 35 32 31 30 28 27 27 25 24 24 25 27 28 29 30 29 31 31 32 34 35 36 36 36 36
38 35 31 31 28 27 26 27 25 26 25 24 27 27 27 28 28 28 31 33 34 35 35 34 34 35 35
30 25 26 26 30 27 26 27 27 27 26 25 26 25 27 23 26 29 31 34 34 34 32 32 33 34 34
29 27 29 28 31 30 29 28 26 26 26 27 26 25 27 27 28 28 32 33 34 32 32 33 33 33 34
31 30 29 28 27 29 29 28 27 24 26 25 28 27 28 28 27 27 30 30 32 33 33 32 33 33 33
28 26 27 30 31 27 31 27 28 27 27 26 27 27 26 28 27 27 27 28 29 30 31 31 32 30 29
20 21 23 27 26 26 29 29 28 28 27 27 28 27 27 27 28 29 29 28 28 28 30 30 30 29 29
20 22 24 27 28 29 28 29 30 29 31 30 27 28 26 23 24 28 28 29 29 28 28 30 31 31 32
24 26 28 30 30 28 28 27 25 27 29 29 28 27 28 25 24 24 26 26 27 28 27 28 28 28 28
26 28 29 27 27 28 26 25 26 25 30 29 23 27 25 25 25 24 24 23 25 26 28 28 28 28 28
26 27 27 27 26 27 27 25 25 24 26 29 29 28 27 25 23 23 23 25 27 29 29 26 27 27 28
27 27 26 26 25 27 27 26 24 24 25 27 27 25 24 24 27 23 24 24 24 26 27 26 25 26 28
26 26 26 26 25 24 23 24 23 22 23 25 25 23 19 16 22 28 24 23 24 24 25 25 25 25 26

GFSFLT2_sfc_dewp_102.txt.gz
Dewpoint
40 40 41 41 41 41 41 41 39 40 40 39 38 38 38 38 38 38 37 36 35 35 36 37 38 37 37
40 40 41 41 41 38 36 34 34 35 36 36 36 37 36 35 35 33 33 33 33 34 36 36 37 37 37
39 39 38 38 37 34 31 30 28 33 32 30 31 32 32 32 33 32 32 32 33 34 35 35 35 36 37
36 35 34 34 35 31 29 30 28 23 25 25 26 28 29 31 32 32 31 32 34 34 33 34 35 36 36
32 33 32 31 30 31 29 28 25 24 23 23 25 26 27 31 31 30 31 31 31 33 34 35 35 35 36
30 33 32 31 28 27 26 24 22 24 24 23 25 25 26 26 30 32 30 32 33 34 35 35 33 34 35
33 29 27 26 27 25 24 23 22 26 25 23 25 24 26 27 30 29 30 32 34 34 34 32 33 33 34
27 28 28 29 29 27 26 25 25 25 25 21 26 24 26 27 31 28 30 33 33 34 32 33 34 34 34
32 31 30 29 28 27 24 22 22 24 25 24 25 26 27 27 28 28 28 31 32 32 33 33 33 33 33
26 27 30 29 30 26 24 17 19 20 25 21 23 23 19 26 27 26 25 29 29 30 31 31 32 30 29
21 21 26 25 25 27 27 19 17 21 26 20 20 26 21 22 24 26 27 28 27 28 31 31 31 31 28
20 21 22 24 24 25 27 25 25 28 29 25 16 25 25 22 20 24 23 25 25 27 27 30 31 32 32
22 22 23 23 23 27 23 23 18 22 27 26 19 25 26 24 17 22 25 24 26 22 23 25 27 27 26
22 23 24 23 20 19 26 26 25 25 29 29 27 21 24 25 25 23 24 23 18 23 24 28 28 27 27
22 22 23 22 20 25 26 25 24 24 25 28 29 27 27 25 23 24 23 22 23 23 28 26 26 26 26
21 22 20 20 18 15 18 24 23 22 23 24 27 26 25 24 26 23 22 22 22 22 20 19 23 25 26
21 19 18 17 25 15 15 17 17 18 17 16 18 22 15 16 20 23 22 15 23 24 21 22 22 23 25

GFSFLT2_sfc_dewp_105.txt.gz
Dewpoint
41 41 41 41 41 42 43 40 41 43 42 41 41 40 40 40 41 40 39 37 35 35 36 36 37 37 36
41 40 41 41 41 39 36 37 35 37 38 38 38 40 39 38 37 36 34 34 34 34 35 35 36 36 37
40 40 39 39 38 34 31 29 30 36 36 36 35 35 34 33 34 33 32 32 33 34 35 35 35 35 36
39 37 36 36 36 31 29 30 28 25 27 27 28 29 30 31 33 33 32 31 33 35 34 34 35 36 36
33 33 30 31 32 32 30 28 26 25 23 23 25 25 27 30 31 31 31 32 33 33 34 35 36 36 35
34 31 31 31 30 29 27 24 23 24 23 22 24 24 25 26 30 32 31 32 33 34 35 35 35 34 34
33 32 30 29 29 27 25 25 24 25 24 21 25 23 25 28 32 31 30 31 33 35 35 35 33 33 34
30 27 28 29 28 27 26 26 25 25 25 20 25 24 26 27 30 29 29 33 34 34 35 33 34 34 34
32 32 32 32 30 28 26 24 22 24 25 23 24 25 26 27 27 29 28 30 32 33 33 32 33 33 33
27 30 30 31 30 26 26 18 19 20 25 20 21 22 18 25 27 27 26 29 29 30 31 31 32 30 29
21 25 26 26 26 28 27 20 13 15 26 18 12 18 16 18 23 25 26 27 27 28 30 31 31 32 29
21 23 25 25 25 26 26 25 24 21 24 18 11 13 11 13 18 23 21 23 24 26 26 28 30 30 31
23 24 24 24 23 21 22 22 17 20 23 23 24 13 16 12 13 18 25 23 24 19 21 23 24 26 26
24 24 24 21 18 16 15 17 18 24 29 28 27 26 24 25 24 23 24 20 16 18 20 22 26 28 26
24 25 25 21 19 15 16 21 23 23 24 27 29 26 25 23 22 22 23 23 23 17 18 22 23 25 25
24 25 23 20 17 12 12 15 18 20 21 22 23 26 21 22 27 22 23 23 22 17 18 23 23 23 24
23 22 21 20 25 14 14 17 17 15 13 13 12 14 15 15 20 23 21 14 23 23 21 20 19 20 22

GFSFLT2_sfc_dewp_108.txt.gz
Dewpoint
42 41 43 43 44 44 43 42 43 45 44 44 43 43 42 42 43 43 41 40 38 36 37 37 37 37 36
41 41 42 42 41 40 40 37 37 40 40 40 40 41 42 41 40 39 37 36 35 35 35 35 36 36 36
40 40 40 41 39 36 32 30 30 37 39 39 39 38 37 37 36 35 34 33 34 34 34 35 35 36 36
40 38 39 39 38 33 31 31 28 27 29 29 31 31 32 33 34 34 34 32 32 34 35 35 35 35 36
37 36 34 35 36 33 31 29 26 25 24 23 25 25 26 30 30 32 33 32 33 34 35 35 35 36 35
36 35 34 33 32 30 29 25 25 25 22 21 24 23 25 26 30 33 32 32 32 33 35 36 36 35 34
36 35 33 32 30 27 26 25 25 25 23 20 25 23 25 26 32 33 32 32 32 34 35 36 35 34 34
35 34 32 31 30 27 26 25 25 25 24 21 25 24 26 26 33 32 30 31 34 34 35 36 34 34 35
33 34 34 33 30 27 26 25 24 24 25 23 25 25 26 26 27 31 29 30 33 33 34 33 33 33 33
29 30 31 31 31 26 26 24 23 22 25 22 22 22 18 24 26 27 27 30 31 32 31 31 31 30 29
25 27 27 26 27 28 26 24 18 18 26 19 10 16 13 18 23 24 25 25 26 27 29 30 31 31 28
22 25 25 25 27 27 27 27 25 23 25 17 11 12 5 10 17 22 21 22 24 25 25 28 29 29 30
23 24 26 27 25 24 25 24 20 22 24 16 16 7 9 8 11 17 19 21 22 19 20 22 23 25 22
24 25 25 25 23 19 16 17 15 17 24 19 18 24 23 24 24 22 20 19 16 17 18 21 23 25 26
25 25 26 25 23 17 17 16 15 17 21 26 29 27 22 19 17 19 17 23 24 23 17 19 21 24 25
25 26 25 24 22 17 17 17 15 20 22 21 22 25 22 21 27 19 18 23 23 18 21 22 21 22 24
25 25 24 24 25 19 19 19 18 16 15 14 18 21 18 17 21 26 22 16 19 20 22 21 19 19 20

GFSFLT2_sfc_dewp_111.txt.gz
Dewpoint
44 43 43 44 45 45 44 44 45 47 46 45 45 45 44 45 45 45 44 43 41 40 40 39 38 38 36
42 42 42 43 43 43 41 38 39 42 42 42 42 42 43 43 43 42 40 38 37 38 36 35 35 36 36
42 41 41 42 40 36 35 33 32 39 40 40 42 42 41 40 39 38 36 36 35 35 34 35 35 36 36
41 39 40 41 39 36 34 32 30 29 32 33 36 36 36 36 36 36 35 33 32 34 35 35 35 36 36
37 37 36 37 38 36 34 31 28 26 25 24 26 25 27 31 31 35 35 33 33 34 36 36 36 36 36
37 37 36 36 35 34 32 29 30 25 23 22 24 23 24 25 30 32 32 33 33 34 35 36 36 36 35
38 38 37 36 34 31 30 28 25 24 22 20 25 23 25 25 31 33 33 33 33 34 35 36 36 36 34
36 37 36 35 34 33 29 26 25 25 23 22 25 23 26 26 33 33 32 31 32 34 35 36 36 35 34
35 35 35 35 31 29 26 26 23 24 25 23 25 26 26 26 27 32 30 30 32 35 35 36 35 34 32
29 30 31 33 30 27 27 22 24 23 25 24 25 24 21 25 26 26 27 31 32 33 33 33 32 30 29
27 28 26 27 27 27 26 25 20 23 27 23 16 19 16 19 23 24 25 25 25 26 29 30 30 31 28
23 24 24 25 26 28 27 27 27 27 29 22 16 16 8 12 18 22 20 22 24 25 25 27 27 28 30
22 22 23 23 25 24 25 25 25 27 24 18 18 8 10 8 12 17 17 20 22 19 20 22 23 24 22
23 24 25 24 21 23 22 22 22 22 25 19 19 17 13 16 15 14 18 15 15 18 18 21 23 24 25
24 24 25 25 24 23 22 21 20 20 20 24 26 25 25 18 14 18 15 16 20 21 21 18 21 23 24
24 25 25 25 24 22 21 21 20 21 19 21 24 25 23 23 26 14 14 15 20 23 20 21 21 22 23
25 24 25 25 26 23 22 21 20 20 19 17 15 20 14 14 22 27 22 19 23 23 23 23 23 22 20

GFSFLT2_sfc_dewp_114.txt.gz
Dewpoint
45 44 44 45 46 46 46 45 47 48 48 47 47 47 47 47 48 48 47 46 45 43 43 42 41 40 38
45 42 44 44 44 44 42 40 41 45 45 45 44 44 45 45 46 44 43 42 41 42 40 38 38 38 37
45 42 42 43 41 39 38 35 35 42 42 42 43 44 44 43 42 41 39 39 39 38 36 36 36 37 37
43 40 41 41 40 37 36 34 33 32 36 38 41 41 40 40 39 38 36 35 35 35 35 36 37 37 38
39 39 37 38 38 37 36 34 31 29 28 27 28 27 29 33 34 38 36 34 33 34 36 36 37 37 37
37 38 38 38 37 36 33 32 32 29 26 24 24 24 24 25 31 34 35 35 34 35 36 37 37 37 36
39 39 38 38 36 34 33 33 32 26 24 22 24 22 24 25 31 33 33 34 34 35 36 37 37 36 36
35 36 37 37 37 35 33 28 26 25 24 25 25 22 26 26 34 34 34 34 33 34 35 36 37 37 35
38 37 37 36 33 32 30 29 26 25 25 23 26 25 27 26 27 34 33 32 33 35 36 36 37 35 33
29 30 31 32 31 28 31 30 27 26 25 25 23 26 25 26 27 27 28 31 32 33 34 35 35 31 30
27 28 26 28 28 27 27 28 20 18 27 24 22 24 22 25 24 26 26 26 26 28 32 32 32 32 29
23 25 26 27 27 27 27 26 26 25 29 25 21 22 21 20 22 24 22 23 24 25 25 27 29 30 32
24 24 25 23 20 22 23 24 22 27 26 22 22 17 16 16 19 21 21 22 23 21 21 22 23 24 23
23 23 21 18 19 17 16 17 20 21 26 21 22 21 17 18 18 18 20 16 18 20 20 21 23 24 24
21 22 23 21 20 17 18 16 15 17 22 25 26 24 23 20 17 20 18 17 21 20 20 19 22 23 23
23 24 23 22 20 17 17 17 16 20 21 21 26 25 23 24 26 18 18 18 20 22 22 21 19 22 23
25 24 24 24 25 23 20 20 20 21 20 19 18 19 18 16 22 27 21 19 22 22 22 22 21 23 22

GFSFLT2_sfc_dewp_117.txt.gz
Dewpoint
49 47 47 47 47 48 49 49 50 51 50 50 50 50 50 51 51 51 50 50 50 47 46 45 45 44 41
50 47 45 46 47 47 45 44 45 48 48 47 47 47 47 48 49 48 48 46 44 45 44 43 43 41 39
49 44 44 44 44 43 42 39 38 44 45 45 45 45 45 46 45 44 43 42 43 41 39 38 39 39 39
46 43 42 43 42 39 38 36 35 35 40 41 44 44 44 44 42 41 40 40 39 38 37 36 37 38 39
43 42 40 39 40 40 40 35 34 34 33 33 35 34 37 39 40 39 37 36 36 36 36 37 37 38 39
41 40 40 39 39 37 35 34 34 32 31 29 28 30 28 31 33 38 38 36 35 35 37 37 37 38 38
40 40 40 39 38 36 35 35 36 30 28 28 25 25 26 23 30 34 35 36 35 35 37 37 38 38 38
36 36 37 37 38 37 36 31 29 27 27 31 25 24 25 26 31 33 35 34 35 35 36 37 37 37 37
35 37 37 37 35 34 32 32 29 27 26 25 26 25 26 27 29 35 35 35 34 35 35 36 37 37 36
30 29 29 30 31 29 34 33 31 29 27 28 26 28 28 28 29 31 33 34 34 34 36 36 37 35 34
27 28 27 27 28 28 28 33 31 29 27 30 30 28 29 28 27 29 29 31 32 32 34 35 35 34 33
23 24 26 28 28 28 28 28 29 31 31 31 31 30 29 27 27 27 28 28 28 30 30 31 33 34 34
24 26 27 29 28 28 29 28 29 29 29 27 29 27 28 29 27 26 27 28 27 29 28 28 29 28 29
26 25 27 28 28 27 28 28 28 29 28 27 27 27 26 26 26 26 27 27 27 27 28 27 26 26 25
26 26 25 27 27 26 26 26 26 26 26 27 27 27 27 27 25 26 26 25 26 27 26 26 27 26 25
27 27 27 26 26 26 26 26 26 25 25 26 27 27 26 26 28 26 25 25 26 27 26 25 24 25 24
29 28 28 27 27 26 26 25 25 25 26 26 26 25 22 21 22 28 26 25 25 25 25 25 24 24 21